EW8570 Weather Reports


Display with metric or nautical units.
time (UTC)temp
F
wind
direction
speed
MPH
gust
MPH
rain 1hr
in
rain 24hr
in
rain mn
in
humidity
%
barometer
mb
20260502233027 58 348 4.0 11.0 0.00 0.00 0.00 40 1011.4
20260502232556 58 351 4.0 13.0 0.00 0.00 0.00 40 1011.2
20260502231509 58 300 4.0 11.0 0.00 0.00 0.00 39 1011.1
20260502230444 58 313 5.0 10.0 0.00 0.00 0.00 42 1011.2
20260502230005 58 31 4.0 10.0 0.00 0.00 0.00 41 1011.1
20260502225525 58 24 5.0 13.0 0.00 0.00 0.00 41 1011.2
20260502225058 58 27 6.0 13.0 0.00 0.00 0.00 40 1011.1
20260502224615 58 341 7.0 13.0 0.00 0.00 0.00 40 1011.2
20260502223549 60 294 6.0 14.0 0.00 0.00 0.00 39 1011.1
20260502223115 60 0 6.0 13.0 0.00 0.00 0.00 39 1011.2
20260502222040 60 336 7.0 16.0 0.00 0.00 0.00 41 1010.8
20260502221602 59 337 6.0 16.0 0.00 0.00 0.00 40 1010.8
20260502221054 59 283 5.0 16.0 0.00 0.00 0.00 40 1010.7
20260502220613 59 246 5.0 14.0 0.00 0.00 0.00 40 1010.7
20260502215601 60 355 6.0 13.0 0.00 0.00 0.00 39 1010.5
20260502215116 60 14 6.0 16.0 0.00 0.00 0.00 39 1010.5
20260502214635 61 338 5.0 16.0 0.00 0.00 0.00 38 1010.4
20260502213614 61 290 6.0 13.0 0.00 0.00 0.00 40 1010.2
20260502212559 62 300 5.0 15.0 0.00 0.00 0.00 37 1010.1
20260502210355 62 333 6.0 14.0 0.00 0.00 0.00 37 1009.7
20260502205306 63 348 5.0 12.0 0.00 0.00 0.00 37 1009.5
20260502204758 63 298 4.0 11.0 0.00 0.00 0.00 36 1009.5
20260502204254 64 321 4.0 10.0 0.00 0.00 0.00 37 1009.5
20260502203750 64 312 5.0 12.0 0.00 0.00 0.00 37 1009.6
20260502203249 64 5 4.0 12.0 0.00 0.00 0.00 36 1009.6
20260502202735 64 310 4.0 11.0 0.00 0.00 0.00 35 1009.5
20260502202233 64 298 5.0 12.0 0.00 0.00 0.00 37 1009.5
20260502201727 63 295 7.0 14.0 0.00 0.00 0.00 37 1009.6
20260502201222 63 343 6.0 14.0 0.00 0.00 0.00 36 1009.7
20260502200717 63 69 5.0 12.0 0.00 0.00 0.00 37 1009.6
20260502200206 63 330 5.0 12.0 0.00 0.00 0.00 35 1009.7
20260502195706 64 306 5.0 12.0 0.00 0.00 0.00 36 1009.7
20260502195156 64 5 5.0 12.0 0.00 0.00 0.00 35 1009.7
20260502194947 62 355 4.0 11.0 0.00 0.00 0.00 40 1010.2
20260502194853 63 348 4.0 11.0 0.00 0.00 0.00 39 1010.2
20260502194652 64 69 5.0 13.0 0.00 0.00 0.00 38 1009.8
20260502194207 64 355 4.0 13.0 0.00 0.00 0.00 36 1009.9
20260502193734 64 314 3.0 8.0 0.00 0.00 0.00 39 1010.0
20260502193257 64 24 4.0 12.0 0.00 0.00 0.00 38 1010.2
20260502192709 64 294 4.0 13.0 0.00 0.00 0.00 36 1010.2
20260502192221 64 298 4.0 13.0 0.00 0.00 0.00 36 1010.2
20260502191744 63 342 4.0 10.0 0.00 0.00 0.00 36 1010.3
20260502191311 63 40 4.0 10.0 0.00 0.00 0.00 40 1010.3
20260502185649 62 333 3.0 12.0 0.00 0.00 0.00 40 1010.4
20260502185513 62 11 5.0 12.0 0.00 0.00 0.00 38 1010.4
20260502185201 62 92 4.0 12.0 0.00 0.00 0.00 42 1010.3
20260502184724 62 67 6.0 12.0 0.00 0.00 0.00 42 1010.4
20260502183647 62 47 3.0 12.0 0.00 0.00 0.00 41 1010.4
20260502183150 62 319 3.0 8.0 0.00 0.00 0.00 37 1010.5
20260502182942 62 293 3.0 9.0 0.00 0.00 0.00 42 1010.6
20260502182148 61 335 4.0 12.0 0.00 0.00 0.00 44 1010.7
20260502181701 60 14 5.0 13.0 0.00 0.00 0.00 41 1010.8
20260502181150 60 332 5.0 13.0 0.00 0.00 0.00 43 1011.0
20260502180648 60 41 5.0 14.0 0.00 0.00 0.00 39 1011.1
20260502180153 61 334 4.0 14.0 0.00 0.00 0.00 42 1011.2
20260502170227 57 38 2.0 6.0 0.00 0.00 0.00 43 1012.0
20260502163650 56 48 3.0 9.0 0.00 0.00 0.00 46 1012.6
20260502163156 56 5 3.0 8.0 0.00 0.00 0.00 46 1012.7
20260502162648 56 38 4.0 12.0 0.00 0.00 0.00 45 1012.9
20260502162309 54 308 4.0 10.0 0.00 0.00 0.00 50 1012.9
20260502162154 56 355 5.0 12.0 0.00 0.00 0.00 48 1013.0
20260502161704 56 61 4.0 10.0 0.00 0.00 0.00 48 1012.9
20260502161224 55 19 3.0 8.0 0.00 0.00 0.00 51 1012.9
20260502160145 54 69 4.0 10.0 0.00 0.00 0.00 48 1013.0
20260502152112 53 307 2.0 6.0 0.00 0.00 0.00 51 1013.4
20260502151957 51 323 4.0 11.0 0.00 0.00 0.00 52 1013.2
20260502151859 51 32 4.0 9.0 0.00 0.00 0.00 52 1013.0
20260502151627 52 5 3.0 9.0 0.00 0.00 0.00 51 1013.3
20260502151142 52 297 4.0 9.0 0.00 0.00 0.00 51 1013.3
20260502150708 52 321 4.0 11.0 0.00 0.00 0.00 53 1013.2
20260502130549 51 0 2.0 4.0 0.00 0.00 0.00 57 1013.0
20260502130108 51 298 2.0 4.0 0.00 0.00 0.00 56 1013.0
20260502123421 50 300 1.0 4.0 0.00 0.00 0.00 58 1012.5
20260502122916 50 311 2.0 7.0 0.00 0.00 0.00 57 1012.3
20260502122418 50 5 3.0 9.0 0.00 0.00 0.00 56 1012.4
20260502121907 50 0 3.0 9.0 0.00 0.00 0.00 58 1012.3
20260502121402 50 29 3.0 7.0 0.00 0.00 0.00 56 1012.3
20260502120856 50 50 4.0 9.0 0.00 0.00 0.00 58 1012.2
20260502120350 50 28 3.0 9.0 0.00 0.00 0.00 56 1012.5
20260502120158 50 0 5.0 11.0 0.00 0.00 0.00 56 1012.4
20260502115900 50 38 3.0 5.0 0.00 0.00 0.00 57 1012.6
20260502115415 50 47 4.0 9.0 0.00 0.00 0.00 56 1012.4
20260502114606 50 350 5.0 11.0 0.00 0.00 0.00 55 1012.3
20260502113816 50 31 4.0 11.0 0.00 0.00 0.00 56 1012.3
20260502113314 50 11 3.0 10.0 0.00 0.00 0.00 57 1012.2
20260502112803 50 317 2.0 6.0 0.00 0.00 0.00 56 1012.2
20260502112258 50 336 3.0 7.0 0.00 0.00 0.00 57 1012.2
20260502111758 50 345 3.0 9.0 0.00 0.00 0.00 56 1012.1
20260502111245 50 317 3.0 11.0 0.00 0.00 0.00 55 1011.9
20260502110742 50 330 4.0 11.0 0.00 0.00 0.00 56 1011.9
20260502110240 50 15 3.0 10.0 0.00 0.00 0.00 57 1011.8
20260502105735 50 344 1.0 9.0 0.00 0.00 0.00 59 1011.9
20260502105224 51 26 2.0 7.0 0.00 0.00 0.00 58 1011.7
20260502105134 51 301 5.0 14.0 0.00 0.00 0.00 61 1011.8
20260502105103 51 333 6.0 14.0 0.00 0.00 0.00 60 1011.7
20260502104742 51 0 3.0 7.0 0.00 0.00 0.00 59 1011.9
20260502104313 51 355 3.0 9.0 0.00 0.00 0.00 59 1011.6
20260502103918 51 303 5.0 14.0 0.00 0.00 0.00 61 1011.8
20260502103845 51 355 7.0 17.0 0.00 0.00 0.00 63 1011.8
20260502103729 51 347 5.0 16.0 0.00 0.00 0.00 59 1011.8
20260502103257 51 19 5.0 16.0 0.00 0.00 0.00 59 1011.6
20260502102828 51 10 5.0 13.0 0.00 0.00 0.00 60 1011.7
20260502100758 51 34 6.0 17.0 0.00 0.00 0.00 63 1011.9
20260502091306 52 283 4.0 13.0 0.00 0.00 0.00 68 1012.0
20260502090826 52 335 5.0 13.0 0.00 0.00 0.00 68 1012.0
20260502070153 53 351 5.0 13.0 0.00 0.00 0.00 67 1010.8
20260502065652 53 315 6.0 13.0 0.00 0.00 0.00 67 1011.1
20260502065150 53 26 6.0 13.0 0.00 0.00 0.00 67 1011.2
20260502064651 53 314 5.0 11.0 0.00 0.00 0.00 68 1011.3
20260502064158 53 350 4.0 11.0 0.00 0.00 0.00 69 1011.4
20260502063650 53 344 4.0 12.0 0.00 0.00 0.00 69 1011.3
20260502063148 53 283 3.0 12.0 0.00 0.00 0.00 69 1011.5
20260502062639 54 42 2.0 5.0 0.00 0.00 0.00 70 1011.6
20260502062137 54 355 2.0 5.0 0.00 0.00 0.00 69 1011.6
20260502061713 52 327 1.0 4.0 0.00 0.00 0.00 76 1011.6
20260502061629 54 0 3.0 9.0 0.00 0.00 0.00 69 1011.7
20260502061557 51 355 2.0 5.0 0.00 0.00 0.00 82 1011.8
20260502061525 53 57 0.0 2.0 0.00 0.00 0.00 74 1011.7
20260502061431 52 355 1.0 4.0 0.00 0.00 0.00 76 1011.7
20260502061135 54 39 3.0 9.0 0.00 0.00 0.00 69 1011.7
20260502060659 54 350 3.0 9.0 0.00 0.00 0.00 69 1011.7
20260502060312 51 0 2.0 5.0 0.00 0.00 0.00 79 1011.7
20260502060112 54 300 3.0 9.0 0.00 0.00 0.00 70 1011.8
20260502055624 53 292 3.0 8.0 0.00 0.00 0.00 70 1011.9
20260502055137 53 306 3.0 8.0 0.00 0.00 0.00 71 1011.9
20260502054652 53 342 2.0 5.0 0.00 0.00 0.00 71 1011.8
20260502054415 51 348 1.0 5.0 0.00 0.00 0.00 82 1011.8
20260502054109 53 347 2.0 7.0 0.00 0.00 0.00 72 1011.8
20260502053632 53 0 1.0 7.0 0.00 0.00 0.00 72 1011.8
20260502053157 53 323 1.0 2.0 0.00 0.00 0.00 73 1011.9
20260502052716 53 36 0.0 2.0 0.00 0.00 0.00 74 1011.7
20260502051702 52 67 1.0 4.0 0.00 0.00 0.00 75 1011.7
20260502050123 51 342 1.0 5.0 0.00 0.00 0.00 78 1011.6
20260502045056 51 350 2.0 5.0 0.00 0.00 0.00 81 1011.7
20260502043432 51 9 1.0 3.0 0.00 0.00 0.00 82 1011.8
20260502042926 51 326 0.0 3.0 0.00 0.00 0.00 82 1011.8
20260502042823 51 17 1.0 4.0 0.00 0.00 0.00 82 1011.9
20260502042441 51 17 1.0 4.0 0.00 0.00 0.00 82 1011.8
20260502041403 51 122 1.0 2.0 0.00 0.00 0.00 82 1011.9
20260502041041 51 5 3.0 6.0 0.00 0.00 0.00 82 1012.1
20260502040909 51 92 2.0 7.0 0.00 0.00 0.00 82 1011.9
20260502040428 51 13 3.0 7.0 0.00 0.00 0.00 82 1011.9
20260502035341 51 11 1.0 5.0 0.00 0.00 0.00 82 1011.9
20260502034850 51 15 1.0 3.0 0.00 0.00 0.00 82 1011.7
20260502034344 51 26 1.0 3.0 0.00 0.00 0.00 82 1011.7
20260502033844 51 32 1.0 3.0 0.00 0.00 0.00 81 1011.7
20260502033343 52 145 0.0 1.0 0.00 0.00 0.00 81 1011.6
20260502032847 52 145 0.0 0.0 0.00 0.00 0.00 81 1011.6
20260502032341 52 145 0.0 0.0 0.00 0.00 0.00 81 1011.7
20260502031843 52 145 0.0 0.0 0.00 0.00 0.00 80 1011.8
20260502031342 52 145 0.0 0.0 0.00 0.00 0.00 80 1011.7
20260502030844 53 145 0.0 0.0 0.00 0.00 0.00 79 1011.8
20260502030342 53 145 0.0 0.0 0.00 0.00 0.00 79 1011.8
20260502025841 53 145 0.0 1.0 0.00 0.00 0.00 79 1011.7
20260502025339 53 145 0.0 1.0 0.00 0.00 0.00 79 1011.6
20260502024843 53 180 0.0 0.0 0.00 0.00 0.00 78 1011.6
20260502024342 54 180 0.0 0.0 0.00 0.00 0.00 77 1011.7
20260502023843 54 180 0.0 0.0 0.00 0.00 0.00 77 1011.7
20260502023333 54 180 0.0 0.0 0.00 0.00 0.00 76 1011.6
20260502022829 55 180 0.0 1.0 0.00 0.00 0.00 77 1011.6
20260502022328 55 180 0.0 1.0 0.00 0.00 0.00 76 1011.6
20260502021823 55 180 0.0 1.0 0.00 0.00 0.00 75 1011.5
20260502021330 55 180 0.0 1.0 0.00 0.00 0.00 75 1011.3
20260502020833 55 180 0.0 1.0 0.00 0.00 0.00 74 1011.3
20260502020809 56 180 0.0 2.0 0.00 0.00 0.00 73 1011.2
20260502020356 55 180 0.0 1.0 0.00 0.00 0.00 74 1011.3
20260502015321 56 180 0.0 2.0 0.00 0.00 0.00 73 1011.1
20260502014825 56 113 0.0 0.0 0.00 0.00 0.00 71 1011.0
20260502014337 57 113 0.0 0.0 0.00 0.00 0.00 70 1011.0
20260502013824 57 113 0.0 0.0 0.00 0.00 0.00 71 1010.8
20260502013327 57 113 0.0 0.0 0.00 0.00 0.00 70 1010.8
20260502012822 58 113 0.0 0.0 0.00 0.00 0.00 69 1010.8
20260502012323 58 113 0.0 0.0 0.00 0.00 0.00 69 1010.8
20260502011831 58 113 0.0 0.0 0.00 0.00 0.00 68 1010.7
20260502011320 58 113 0.0 0.0 0.00 0.00 0.00 67 1010.8
20260502011009 59 113 0.0 1.0 0.00 0.00 0.00 64 1010.6
20260502010831 59 113 0.0 1.0 0.00 0.00 0.00 66 1010.8
20260502010349 59 113 0.0 1.0 0.00 0.00 0.00 65 1010.7
20260502005326 60 113 0.0 1.0 0.00 0.00 0.00 64 1010.5
20260502004949 60 113 0.0 0.0 0.00 0.00 0.00 61 1010.2
20260502004810 60 113 0.0 0.0 0.00 0.00 0.00 63 1010.4
20260502004336 60 113 0.0 0.0 0.00 0.00 0.00 63 1010.3
20260502003744 61 113 0.0 0.0 0.00 0.00 0.00 60 1009.9
20260502003328 61 113 0.0 0.0 0.00 0.00 0.00 61 1010.0
20260502002543 64 194 1.0 3.0 0.00 0.00 0.00 56 1009.3
20260502002306 61 113 0.0 0.0 0.00 0.00 0.00 60 1009.9
20260502001832 62 113 0.0 0.0 0.00 0.00 0.00 59 1009.9
20260502001405 64 153 1.0 3.0 0.00 0.00 0.00 56 1009.4
20260502001254 62 113 0.0 1.0 0.00 0.00 0.00 59 1009.9
20260502001228 64 200 1.0 3.0 0.00 0.00 0.00 56 1009.3
20260502000808 62 113 0.0 1.0 0.00 0.00 0.00 59 1009.8
20260502000337 62 113 1.0 1.0 0.00 0.00 0.00 59 1009.7
20260501235749 62 211 1.0 2.0 0.00 0.00 0.00 58 1009.6
20260501235316 63 211 1.0 3.0 0.00 0.00 0.00 58 1009.5
20260501234841 63 211 1.0 3.0 0.00 0.00 0.00 57 1009.4
20260501234358 63 203 1.0 3.0 0.00 0.00 0.00 58 1009.3
20260501233920 63 226 1.0 3.0 0.00 0.00 0.00 57 1009.3